www.pogodaiklimat.ru

Погода и климат >> Архив погоды >> Канада >> Нунавут >> Холл Бич


ПОГОДА в Холл Бич

  • Прогноз погоды в Холл Бич
  • Монитор погоды в Холл Бич

АРХИВ ПОГОДЫ в Холл Бич

Время (UTC), дата Ветер
(напр.,м/с)
 
Видим.   Явления Облачность Т
(С)
Тd
(С)
f
(%)
Тe
(С)
Тes
(С)
Комфортность P
(гПа)
Po
(гПа)
Тmin
(С)
Tmax
(С)
R
(мм)
R24
(мм)
S
(см)
09 19.03 СЗ 10 8000 м дым ясно -33.6 -37.5 68 -51 -51 опасность
обморожения
1006.5 1005.2
12 19.03 СЗ 8 16 км ясно -34.3 -38.3 67 -51 -51 опасность
обморожения
1007.9 1006.6 -34.9 -28.0
15 19.03 СЗ 8 16 км ясно -32.1 -36.3 66 -48 -48 опасность
обморожения
1008.2 1006.9
18 19.03 СЗ 7 16 км ясно -28.8 -33.0 67 -43 -41 опасность
обморожения
1008.4 1007.1 -34.9 -28.8
21 19.03 СЗ 12 1600 м в посл. час метель 5/0 2000 м
[]
-28.0 -31.5 72 -46 -46 опасность
обморожения
1009.2 1007.9
00 20.03 СЗ 11 2000 м в посл. час метель ясно -28.7 -31.8 75 -46 -46 опасность
обморожения
1009.5 1008.2 -34.9 -27.9
03 20.03 СЗ 8 4000 м дым ясно -29.0 -32.1 74 -44 -44 опасность
обморожения
1008.5 1007.2
06 20.03 СЗ 7 16 км 10/0
[]
-26.9 -30.1 74 -40 -40 опасность
обморожения
1007.7 1006.4 -34.9 -26.6 202
09 20.03 СЗ 8 2800 м слаб. снег 10/10 1000 м
[]
-24.8 -27.6 77 -39 -39 опасность
обморожения
1007.3 1006.0
12 20.03 СЗ 9 2400 м слаб. снег 10/10 1000 м
[]
-24.5 -27.2 78 -39 -39 опасность
обморожения
1005.6 1004.3 -29.3 -26.6
15 20.03 СЗ 5 8000 м слаб. снег 10/10 1000 м
[]
-24.3 -27.3 76 -36 -36 опасность
обморожения
1004.2 1002.9
18 20.03 СЗ 5 11 км 9/9 1000 м
[]
-23.0 -26.0 76 -33 -33 опасность
обморожения
1002.9 1001.6 -29.3 -23.0
21 20.03 С 4 6000 м слаб. снег 10/10 1000 м
[]
-23.0 -25.7 78 -32 -32 опасность
обморожения
1002.2 1000.9
00 21.03 С 6 16 км ясно -27.7 -30.2 79 -40 -39 опасность
обморожения
1001.6 1000.3 -27.8 -22.7
03 21.03 С 6 16 км ясно -31.5 -34.6 74 -46 -46 опасность
обморожения
1001.5 1000.2
06 21.03 С 7 11 км ясно -33.1 -36.4 72 -48 -48 опасность
обморожения
1001.5 1000.2 -33.7 -22.7 101
09 21.03 СЗ 6 6000 м слаб. снег 9/9 1500 м
[]
-33.7 -37.3 70 -48 -48 опасность
обморожения
1002.1 1000.8
12 21.03 СЗ 6 16 км слаб. снег 3/0
[]
-32.9 -36.4 71 -47 -47 опасность
обморожения
1001.5 1000.2 -34.6 -22.7
15 21.03 СЗ 6 16 км 3/0
[]
-30.9 -34.2 73 -44 -44 опасность
обморожения
1002.7 1001.4
18 21.03 С 8 3200 м слаб. снег ясно -28.6 -31.9 73 -43 -42 опасность
обморожения
1004.1 1002.8 -34.6 -28.6
21 21.03 С 11 300 м в посл. час сильная метель ясно -29.4 -33.1 70 -47 -46 опасность
обморожения
1006.9 1005.6
00 22.03 С 9 4000 м слаб. снег {осадки} ясно -30.1 -33.9 69 -46 -46 опасность
обморожения
1009.3 1008.0 -34.6 -28.6 2
03 22.03 СЗ 5 16 км ясно -33.6 -37.6 67 -47 -47 опасность
обморожения
1010.8 1009.5
06 22.03 СЗ 7 16 км ясно -33.5 -37.4 68 -49 -49 опасность
обморожения
1010.7 1009.4 -34.6 -28.6 211
09 22.03 З 5 16 км 3/0
[]
-33.6 -37.2 70 -47 -47 опасность
обморожения
1009.3 1008.0
12 22.03 ЮЗ 4 16 км 9/0
[]
-28.9 -32.6 70 -40 -40 опасность
обморожения
1007.0 1005.7 -34.4 -28.6
15 22.03 З 5 16 км 10/10 1500 м
[]
-25.9 -29.9 69 -38 -38 опасность
обморожения
1003.9 1002.6
18 22.03 З 3 16 км ясно -23.2 -27.4 68 -31 -24 опасность
обморожения
1002.1 1000.8 -34.4 -23.2
21 22.03 З 3 16 км 5/5 1500 м
[]
-24.5 -27.8 74 -32 -28 опасность
обморожения
1000.2 998.9
00 23.03 СЗ 4 16 км 5/5 600 м
[]
-28.8 -31.8 75 -40 -39 опасность
обморожения
998.5 997.2 -34.4 -23.2
03 23.03 С 7 4800 м слаб. снег ясно -30.5 -33.9 72 -45 -45 опасность
обморожения
998.0 996.7
06 23.03 С 8 4800 м дым 10/10 1000 м
[]
-31.4 -35.1 70 -47 -47 опасность
обморожения
998.3 997.0 -34.4 -23.2 0.0 51
09 23.03 С 11 500 м снег {осадки} н/о -32.6 -36.1 71 -51 -51 опасность
обморожения
998.5 997.2
12 23.03 СВ 13 <100 м в посл. час сильная метель 10/10 300 м
[]
-22.1 -24.7 79 -38 -38 опасность
обморожения
999.1 997.8 -34.4 -23.2 4
15 23.03 СВ 13 <100 м в посл. час сильная метель 9/9 300 м
[]
-22.4 -25.7 74 -38 -38 опасность
обморожения
1002.8 1001.5
18 23.03 СВ 13 100 м в посл. час сильная метель н/о -22.4 -25.3 77 -38 -38 опасность
обморожения
1005.0 1003.7 -34.4 -22.0 8
21 23.03 СВ 13 100 м в посл. час сильная метель 10/10 600 м
[]
-22.1 -25.0 77 -38 -38 опасность
обморожения
1006.4 1005.1
00 24.03 СВ 15 100 м в посл. час сильная метель н/о -23.4 -26.2 78 -41 -41 опасность
обморожения
1007.1 1005.8 -34.4 -21.9 2
03 24.03 СВ 15 100 м в посл. час сильная метель 9/9 300 м
[]
-24.0 -26.8 78 -42 -42 опасность
обморожения
1006.5 1005.2
06 24.03 СВ 19 100 м в посл. час сильная метель н/о -23.6 -26.3 78 -42 -42 опасность
обморожения
1006.8 1005.5 -34.4 -21.9 6 63
09 24.03 СВ 17 100 м в посл. час сильная метель н/о -22.9 -25.5 79 -41 -41 опасность
обморожения
1006.4 1005.1
12 24.03 СВ 18 100 м в посл. час сильная метель н/о -22.6 -25.0 81 -41 -41 опасность
обморожения
1006.4 1005.1 -24.3 -21.9 8
15 24.03 СВ 16 100 м в посл. час сильная метель н/о -21.9 -24.3 81 -39 -39 опасность
обморожения
1005.8 1004.5
18 24.03 С 17 100 м в посл. час сильная метель н/о -21.1 -23.4 82 -38 -38 опасность
обморожения
1004.3 1003.0 -24.3 -21.0 4
21 24.03 С 17 н/о н/о -20.1 -22.2 83 -37 -37 опасность
обморожения
1005.0 1003.7
00 25.03 С 13 н/о н/о -23.2 -25.6 81 -40 -40 опасность
обморожения
1006.6 1005.3 -23.6 -20.0
03 25.03 С 13 н/о н/о -24.9 -27.6 78 -42 -42 опасность
обморожения
1007.4 1006.1
06 25.03 С 14 н/о н/о -26.4 -29.2 77 -44 -44 опасность
обморожения
1006.5 1005.2 -26.4 -20.0 193
09 25.03 С 12 н/о н/о -26.3 -29.1 77 -43 -43 опасность
обморожения
1006.3 1005.0
12 25.03 С 12 н/о н/о -26.6 -29.4 77 -43 -43 опасность
обморожения
1005.3 1004.0 -27.8 -20.0
15 25.03 С 11 н/о н/о -24.9 -27.7 77 -41 -41 опасность
обморожения
1004.2 1002.9
18 25.03 С 11 н/о н/о -22.3 -24.9 79 -37 -37 опасность
обморожения
1003.9 1002.6 -27.8 -22.2
21 25.03 С 10 н/о н/о -21.2 -24.1 77 -35 -35 опасность
обморожения
1004.7 1003.4
00 26.03 СЗ 6 16 км н/о -25.2 -28.3 75 -38 -38 опасность
обморожения
1005.5 1004.2 -27.8 -21.1
03 26.03 СЗ 8 16 км н/о -27.3 -30.3 76 -42 -42 опасность
обморожения
1005.3 1004.0

 

Местоположение метеостанции Холл Бич (Нунавут, Канада): широта 50.00 долгота -123.12 высота над уровнем моря 883 м.

В архиве по умолчанию представлена погода в Холл Бич за последнюю неделю. Архивные данные за месяц целиком и за предыдущие месяцы, начиная с января 2011 года, Вы можете получить, выбрав интересующий диапазон дат из раскрывающегося списка и нажав кнопку "Ввод!".


*Определитесь, кто Вы:
робот инопланетянин человек

Внимание! Время в таблицах - всемирное. Для получения местного времени необходимо прибавить поправку, которая равна -8 ч.

Смотрите также архив погоды в соседних городах и на ближайших метеорологических станциях:

Погода в Долине Каллагхан (Британская Колумбия, Канада) (13 км)
Погода в Шеффервилл аэропорту (Квебек, Канада) (15 км)
Погода в Эрлтоне аэропорт (Онтарио, Канада) (18 км)
Погода в Ревелстоке (Британская Колумбия, Канада) (18 км)
Погода в Блэккомбе (Британская Колумбия, Канада) (18 км)
Погода в Дис Лейк (Британская Колумбия, Канада) (18 км)
Погода в Уистлере (Британская Колумбия, Канада) (19 км)
Погода на Базе Блэккомб (Британская Колумбия, Канада) (21 км)
Погода в Сквамише (Британская Колумбия, Канада) (25 км)
Погода в Пембертоне (Британская Колумбия, Канада) (45 км)

Пояснения к столбцам:

Ветер - указаны скорость ветра в м/с - средняя за 10 мин, порывы в срок и между сроками (в фигурных скобках) и направление, откуда дует ветер: С - северный, СВ - северо-восточный, В - восточный, ЮВ - юго-восточный, Ю - южный, ЮЗ - юго-западный, З - западный, СЗ - северо-западный.
Видимость - горизонтальная дальность видимости в метрах или километрах. При видимости от 1 до 10 км при отсутствии осадков обычно наблюдается дымка, при ухудшении видимости до 1 км и менее - туман. В сухую погоду видимость может ухудшаться дымом, пылью или мглою.
Явления - указаны атмосферные явления, наблюдавшиеся в срок или в последний час перед сроком; фигурными скобками обозначены явления, наблюдавшиеся между сроками (за 1-3 часа до срока); квадратными скобками обозначены град или гололедные отложения с указанием их диаметра в мм.
Облачность - указаны через наклонную черту общая и нижняя облачность в баллах и высота нижней границы облаков в метрах; квадратными скобками обозначены формы облаков: Ci - перистые, Cs - перисто-слоистые, Cc - перисто-кучевые, Ac - высококучевые, As - высокослоистые, Sc - слоисто-кучевые, Ns - слоисто-дождевые, Cu - кучевые, Cb - кучево-дождевые. Подробнее классификацию облаков см. в Атласе облаков (PDF).
T - Температура воздуха - температура, измеренная на высоте 2 м над землей.
Td - Температура точки росы - температура, при понижении до которой содержащийся в воздухе водяной пар достигнет насыщения.
f - Относительная влажность воздуха - влажноcть воздуха, измеренная на высоте 2 м над землей.
Te - Эффективная температура - температура, которую ощущает одетый по сезону человек в тени. Характеристика душности погоды. При расчете учитывается влияние влажности воздуха и скорости ветра на теплоощущения человека.
Tes - Эффективная температура на солнце - температура, которую ощущает человек, с поправкой на солнечный нагрев. Характеристика знойности погоды. Зависит от высоты солнца над горизонтом, облачности и скорости ветра. Ночью, в пасмурную погоду, а также при ветре 12 м/с и более поправка равна нулю.
P - Атмосферное давление - приведенное к уровню моря атмосферное давление.
Po - Атмосферное давление - измеренное на уровне метеостанции атмосферное давление.
Tmin - Минимальная температура - минимум температуры воздуха на высоте 2 м над землей.
Tmax - Максимальная температура - максимум температуры воздуха на высоте 2 м над землей.
R - Количество осадков - Количество выпавших осадков за период времени, мм. При наведении курсора мыши на число - период времени, за который выпало указанное количество осадков.
R24 - Количество осадков - Количество выпавших осадков за 24 часа, мм.
S - Снежный покров - Высота снежного покрова, см. При наведении курсора мыши на число - состояние снежного покрова и степень покрытия местности в баллах.